Tracking 27111 objects as of 28-Mar-2023
HD Live streaming from Space Station
objects crossing your sky now

ARIANE 1 DEB

Track ARIANE 1 DEB now!
10-day predictions


NORAD ID: 17429
Int'l Code: 1986-019FQ
Perigee: 676.8 km
Apogee: 761.8 km
Inclination: 99.1 °
Period: 99.0 minutes
Semi major axis: 7090 km
RCS: 0.0335 m2 (small)
Launch date: February 22, 1986
Source: France (FR)
Launch site: FRENCH GUIANA (FRGUI)

Note: This is SATELLITE DEBRIS
Your satellite tracking list
Your tracking list is empty




NASA's NSSDC Master Catalog

Two Line Element Set (TLE):
1 17429U 86019FQ  23086.59619527  .00007568  00000-0  17593-2 0  9993
2 17429  99.0596 217.3679 0059923 319.4785  40.1955 14.54131041899300
Source of the keplerian elements: AFSPC